User: anonymous
Location: North Smoke Tower Site
(30.5430°N, 82.3390°W)
Time: 16:09:32
(UTC-04:00)
Language:

Cosmos 1980 Rocket - Orbit

View from above orbital plane
View from above orbital plane
View from above satellite
View from above satellite

Ground track
Ground track

The orbit data is extracted from the following two-line orbital elements,

1 19650U 88102B   14264.16124127 -.00000209  00000-0 -82142-4 0  3854
2 19650 070.9999 317.7556 0016619 266.3734 125.1084 14.15675809334461
Epoch (UTC): 21 September 2014 03:52:11
Eccentricity: 0.0016619
inclination: 70.9999°
perigee height: 828 km
apogee height: 852 km
right ascension of ascending node: 317.7556°
argument of perigee: 266.3734°
revolutions per day: 14.15675809
mean anomaly at epoch: 125.1084°
orbit number at epoch: 33446

The dashed part of the orbit path shows where the satellite is in the earth's shadow,  

DLR